When you browse on this site, cookies collect data to enhance your experience and personalize the content and advertising you see.
Visit our Privacy Policy to learn more. By continuing to use the site, you agree to this use of cookies and data.
  • Em Portugal
  • Lista de países
  • Para 7 dias
  • Temperatura da água
  • Mapa do tempo
  • Widgets de tempo
  • user-avatar
    Iniciar Sessão

    Previsão horária em Falaba

    Hoje, 7 Abril, Terça-feira

    Tempo Temperatura Precipitação Vento Pressão Humidade
    00:00 +27°C° 0 mm 1 m/s 740 mmHg 94%
    01:00 +24°C° 0 mm 0 m/s 740 mmHg 96%
    02:00 +24°C° 0 mm 0 m/s 740 mmHg 97%
    03:00 +24°C° 0.1 mm 0 m/s 740 mmHg 97%
    04:00 +24°C° 0.1 mm 0 m/s 740 mmHg 97%
    05:00 +24°C° 0.1 mm 0 m/s 740 mmHg 98%
    06:00 +25°C° 0.1 mm 0 m/s 741 mmHg 92%
    07:00 +28°C° 0.1 mm 1 m/s 741 mmHg 86%
    08:00 +30°C° 0.1 mm 1 m/s 742 mmHg 81%
    09:00 +32°C° 0 mm 1 m/s 742 mmHg 69%
    10:00 +35°C° 0 mm 1 m/s 741 mmHg 56%
    11:00 +37°C° 0 mm 1 m/s 741 mmHg 44%
    12:00 +39°C° 0 mm 1 m/s 740 mmHg 42%
    13:00 +39°C° 0 mm 1 m/s 740 mmHg 40%
    14:00 +39°C° 0 mm 1 m/s 739 mmHg 37%
    15:00 +37°C° 0 mm 1 m/s 739 mmHg 43%
    16:00 +36°C° 0 mm 1 m/s 739 mmHg 48%
    17:00 +34°C° 0 mm 1 m/s 738 mmHg 53%
    18:00 +32°C° 5.1 mm 1 m/s 739 mmHg 67%
    19:00 +29°C° 5.1 mm 1 m/s 740 mmHg 81%
    20:00 +27°C° 5.1 mm 1 m/s 741 mmHg 95%
    21:00 +27°C° 0.4 mm 1 m/s 741 mmHg 95%
    22:00 +26°C° 0.4 mm 1 m/s 741 mmHg 95%
    23:00 +24°C° 0.4 mm 0 m/s 741 mmHg 96%

    Amanhã, 8 Abril, Quarta-feira

    Tempo Temperatura Precipitação Vento Pressão Humidade
    00:00 +24°C° 0 mm 0 m/s 740 mmHg 96%
    01:00 +24°C° 0 mm 0 m/s 740 mmHg 97%
    02:00 +24°C° 0 mm 0 m/s 739 mmHg 98%
    03:00 +23°C° 0 mm 0 m/s 739 mmHg 98%
    04:00 +23°C° 0 mm 0 m/s 739 mmHg 98%
    05:00 +23°C° 0 mm 0 m/s 740 mmHg 99%
    06:00 +24°C° 0 mm 0 m/s 740 mmHg 93%
    07:00 +28°C° 0 mm 1 m/s 741 mmHg 87%
    08:00 +29°C° 0 mm 1 m/s 741 mmHg 82%
    09:00 +31°C° 0 mm 1 m/s 741 mmHg 73%
    10:00 +33°C° 0 mm 1 m/s 741 mmHg 63%
    11:00 +35°C° 0 mm 1 m/s 740 mmHg 54%
    12:00 +35°C° 0 mm 1 m/s 740 mmHg 53%
    13:00 +36°C° 0 mm 1 m/s 739 mmHg 52%
    14:00 +37°C° 0 mm 2 m/s 739 mmHg 50%
    15:00 +35°C° 1 mm 2 m/s 738 mmHg 59%
    16:00 +33°C° 1 mm 1 m/s 738 mmHg 67%
    17:00 +31°C° 1 mm 1 m/s 737 mmHg 76%
    18:00 +30°C° 0.9 mm 1 m/s 738 mmHg 81%
    19:00 +28°C° 0.9 mm 1 m/s 739 mmHg 87%
    20:00 +27°C° 0.9 mm 1 m/s 740 mmHg 93%
    21:00 +26°C° 0.2 mm 1 m/s 740 mmHg 93%
    22:00 +24°C° 0.2 mm 0 m/s 740 mmHg 94%
    23:00 +24°C° 0.2 mm 0 m/s 740 mmHg 95%

    Depois de amanhã, 9 Abril, Quinta-feira

    Tempo Temperatura Precipitação Vento Pressão Humidade
    00:00 +24°C° 0 mm 0 m/s 740 mmHg 95%
    01:00 +24°C° 0 mm 0 m/s 739 mmHg 95%
    02:00 +26°C° 0 mm 1 m/s 738 mmHg 95%
    03:00 +24°C° 0 mm 0 m/s 738 mmHg 96%
    04:00 +24°C° 0 mm 0 m/s 739 mmHg 97%
    05:00 +24°C° 0 mm 0 m/s 739 mmHg 98%
    06:00 +25°C° 0 mm 0 m/s 739 mmHg 92%
    07:00 +26°C° 0 mm 0 m/s 740 mmHg 86%
    08:00 +27°C° 0 mm 0 m/s 741 mmHg 81%
    09:00 +31°C° 0 mm 1 m/s 741 mmHg 74%
    10:00 +32°C° 0 mm 1 m/s 740 mmHg 67%
    11:00 +33°C° 0 mm 1 m/s 740 mmHg 60%
    12:00 +34°C° 0.3 mm 1 m/s 739 mmHg 59%
    13:00 +34°C° 0.3 mm 1 m/s 738 mmHg 58%
    14:00 +34°C° 0.3 mm 1 m/s 737 mmHg 58%
    15:00 +34°C° 0.5 mm 1 m/s 738 mmHg 59%
    16:00 +34°C° 0.5 mm 1 m/s 738 mmHg 60%
    17:00 +33°C° 0.5 mm 1 m/s 738 mmHg 61%
    18:00 +31°C° 0.5 mm 1 m/s 738 mmHg 71%
    19:00 +29°C° 0.5 mm 1 m/s 739 mmHg 81%
    20:00 +27°C° 0.5 mm 1 m/s 739 mmHg 90%
    21:00 +27°C° 0 mm 1 m/s 739 mmHg 92%
    22:00 +24°C° 0 mm 0 m/s 739 mmHg 94%
    23:00 +24°C° 0 mm 0 m/s 739 mmHg 96%

    10 Abril, Sexta-feira

    Tempo Temperatura Precipitação Vento Pressão Humidade
    00:00 +24°C° 0 mm 0 m/s 739 mmHg 97%
    01:00 +23°C° 0 mm 0 m/s 739 mmHg 97%
    02:00 +23°C° 0 mm 0 m/s 738 mmHg 98%
    03:00 +23°C° 0 mm 0 m/s 738 mmHg 98%
    04:00 +23°C° 0 mm 0 m/s 739 mmHg 99%
    05:00 +23°C° 0 mm 0 m/s 739 mmHg 99%
    06:00 +24°C° 0 mm 0 m/s 739 mmHg 92%
    07:00 +26°C° 0 mm 0 m/s 740 mmHg 86%
    08:00 +29°C° 0 mm 1 m/s 740 mmHg 80%
    09:00 +30°C° 0 mm 1 m/s 740 mmHg 74%
    10:00 +31°C° 0 mm 1 m/s 740 mmHg 69%
    11:00 +32°C° 0 mm 1 m/s 740 mmHg 63%
    12:00 +34°C° 0 mm 1 m/s 739 mmHg 58%
    13:00 +35°C° 0 mm 1 m/s 738 mmHg 54%
    14:00 +34°C° 0 mm 0 m/s 738 mmHg 49%
    15:00 +35°C° 0 mm 1 m/s 737 mmHg 51%
    16:00 +35°C° 0 mm 1 m/s 737 mmHg 53%
    17:00 +34°C° 0 mm 1 m/s 737 mmHg 56%
    18:00 +32°C° 0.1 mm 1 m/s 738 mmHg 63%
    19:00 +30°C° 0.1 mm 1 m/s 738 mmHg 71%
    20:00 +28°C° 0.1 mm 1 m/s 739 mmHg 78%
    21:00 +28°C° 0.1 mm 1 m/s 739 mmHg 83%
    22:00 +27°C° 0.1 mm 1 m/s 739 mmHg 87%
    23:00 +25°C° 0.1 mm 0 m/s 739 mmHg 92%

    11 Abril, Sábado

    Tempo Temperatura Precipitação Vento Pressão Humidade
    00:00 +24°C° 0.1 mm 0 m/s 739 mmHg 94%
    01:00 +24°C° 0.1 mm 0 m/s 739 mmHg 96%
    02:00 +24°C° 0.1 mm 0 m/s 738 mmHg 98%
    03:00 +24°C° 0.1 mm 0 m/s 739 mmHg 98%
    04:00 +23°C° 0.1 mm 0 m/s 739 mmHg 98%
    05:00 +23°C° 0.1 mm 0 m/s 739 mmHg 99%
    06:00 +25°C° 0 mm 0 m/s 740 mmHg 91%
    07:00 +27°C° 0 mm 0 m/s 740 mmHg 83%
    08:00 +30°C° 0 mm 1 m/s 740 mmHg 76%
    09:00 +32°C° 0 mm 1 m/s 740 mmHg 69%
    10:00 +33°C° 0 mm 1 m/s 740 mmHg 63%
    11:00 +34°C° 0 mm 1 m/s 740 mmHg 57%
    12:00 +35°C° 0.3 mm 1 m/s 739 mmHg 56%
    13:00 +35°C° 0.3 mm 1 m/s 738 mmHg 55%
    14:00 +35°C° 0.3 mm 1 m/s 738 mmHg 54%
    15:00 +33°C° 2 mm 1 m/s 738 mmHg 63%
    16:00 +32°C° 2 mm 1 m/s 737 mmHg 72%
    17:00 +30°C° 2 mm 1 m/s 737 mmHg 80%
    18:00 +29°C° 3 mm 1 m/s 738 mmHg 84%
    19:00 +28°C° 3 mm 1 m/s 739 mmHg 88%
    20:00 +24°C° 3 mm 0 m/s 740 mmHg 92%
    21:00 +24°C° 0.7 mm 0 m/s 740 mmHg 93%
    22:00 +24°C° 0.7 mm 0 m/s 740 mmHg 95%
    23:00 +24°C° 0.7 mm 0 m/s 741 mmHg 96%

    12 Abril, Domingo

    Tempo Temperatura Precipitação Vento Pressão Humidade
    00:00 +23°C° 1.5 mm 0 m/s 740 mmHg 97%
    01:00 +23°C° 1.5 mm 0 m/s 740 mmHg 97%
    02:00 +23°C° 1.5 mm 0 m/s 740 mmHg 98%
    03:00 +23°C° 2.5 mm 0 m/s 740 mmHg 97%
    04:00 +23°C° 2.5 mm 0 m/s 740 mmHg 97%
    05:00 +23°C° 2.5 mm 0 m/s 740 mmHg 97%
    06:00 +23°C° 0.1 mm 0 m/s 740 mmHg 96%
    07:00 +24°C° 0.1 mm 0 m/s 740 mmHg 95%
    08:00 +24°C° 0.1 mm 0 m/s 741 mmHg 94%
    09:00 +26°C° 0 mm 0 m/s 741 mmHg 85%
    10:00 +27°C° 0 mm 0 m/s 740 mmHg 77%
    11:00 +29°C° 0 mm 0 m/s 740 mmHg 69%
    12:00 +33°C° 0 mm 1 m/s 740 mmHg 62%
    13:00 +34°C° 0 mm 1 m/s 739 mmHg 54%
    14:00 +36°C° 0 mm 1 m/s 738 mmHg 46%
    15:00 +35°C° 0 mm 1 m/s 738 mmHg 51%
    16:00 +33°C° 0 mm 1 m/s 738 mmHg 56%
    17:00 +32°C° 0 mm 1 m/s 738 mmHg 61%
    18:00 +30°C° 0.7 mm 1 m/s 738 mmHg 71%
    19:00 +28°C° 0.7 mm 1 m/s 739 mmHg 81%
    20:00 +24°C° 0.7 mm 0 m/s 739 mmHg 91%
    21:00 +24°C° 0.3 mm 0 m/s 740 mmHg 92%
    22:00 +23°C° 0.3 mm 0 m/s 740 mmHg 93%
    23:00 +23°C° 0.3 mm 0 m/s 740 mmHg 94%
    Mostrar mais